Location: Newark
(48.8833°N, 0.9236°W)
Time: 18:09:46
(UTC+00:00)

Tiros 1 despin weight - Pass Details

Date: 17 November 2019
Orbit: 594 x 642 km, 48.2° (Epoch: 06 December)

Event Time Altitude Azimuth Distance (km) Brightness Sun altitude
Rises 17:02:45 0° 272° (W) 2,840 ? -7.0°
Reaches altitude 10° 17:05:02 10° 271° (W) 1,943 ? -7.4°
Maximum altitude 17:09:29 82° 186° (S) 617 ? -8.0°
Drops below altitude 10° 17:14:01 10° 98° (E) 1,969 ? -8.7°
Enters shadow 17:14:21 - 98° (E) 2,099 ? -8.8°
Sets 17:16:20 0° 97° (E) 2,882 - -9.1°
